Flag for United Arab Emirates Weather past 2 weeks in Sharjah, Sharjah, United Arab Emirates

Now
82 °F

Clear.


Feels Like: 86 °F
Forecast: 83 / 93 °F
Wind: 3 mph from East

Location: Sharjah International Airport

Current Time: Oct 25, 2014 at 10:25:29 PM

Latest Report: Oct 25, 2014 at 10:00 PM


Visibility: 10 mi

Pressure: 29.89 "Hg

Humidity: 66%

Dew point: 70 °F

Location of SharjahLocation

Historic Weather in Sharjah — Graph

°F

Sharjah temperature yesterday

Maximum temperature yesterday: 93 °F (at 1:00 PM)
Minimum temperature yesterday: 72 °F (at 5:00 AM)
Average temperature yesterday: 82 °F

Past Weeks' High & Low Weather Summary

 TemperatureHumidityPressure
High104 °F (Oct 14, 2:00 PM)89% (Oct 13, 5:00 AM)30.01 "Hg (Oct 13, 5:00 AM)
Low72 °F (Oct 24, 5:00 AM)9% (Oct 14, 2:00 PM)29.77 "Hg (Oct 13, 3:00 PM)
Average87 °F52%29.89 "Hg
* Reported Oct 10 9:00 PM — Oct 25 9:00 PM, Sharjah, Weather by CustomWeather, © 2014

Note: Actual official high and low records may vary slightly from our data, if they occured in-between our weather recording intervals... More about our weather records

Advertising

Sharjah weather history for previous 24 hours

 ConditionsComfort  
Time TempWeatherWind HumidityBarometerVisibility
9:00 PM
Oct 25
84 °FPassing clouds.3 mph62%29.89 "HgN/A
8:00 PM84 °FClear.2 mph62%29.86 "Hg10 mi
7:00 PM88 °FClear.6 mph55%29.86 "Hg10 mi
6:00 PM88 °FClear.13 mph55%29.83 "Hg10 mi
5:00 PM90 °FSunny.16 mph49%29.83 "Hg10 mi
4:00 PM90 °FSunny.14 mph52%29.83 "Hg10 mi
3:00 PM91 °FPassing clouds.14 mph49%29.80 "HgN/A
2:00 PM91 °FPassing clouds.14 mph52%29.83 "HgN/A
1:00 PM93 °FPassing clouds.9 mph44%29.83 "HgN/A
11:00 AM90 °FSunny.2 mph49%29.89 "Hg10 mi
10:00 AM86 °FPassing clouds.3 mph59%29.92 "HgN/A
9:00 AM81 °FPassing clouds.6 mph70%29.92 "HgN/A
8:00 AM79 °FSunny.6 mph70%29.89 "Hg10 mi
7:00 AM75 °FSunny.3 mph78%29.89 "Hg10 mi
6:00 AM73 °FClear.3 mph78%29.89 "Hg10 mi
5:00 AM75 °FClear.2 mph78%29.86 "Hg10 mi
4:00 AM75 °FClear.2 mph78%29.86 "Hg10 mi
3:00 AM79 °FClear.1 mph70%29.86 "Hg10 mi
2:00 AM79 °FClear.2 mph70%29.86 "Hg10 mi
1:00 AM79 °FClear.3 mph70%29.86 "Hg10 mi
12:00 AM82 °FClear.3 mph62%29.89 "Hg10 mi
11:00 PM
Oct 24
82 °FClear.No wind66%29.89 "Hg10 mi
10:00 PM84 °FClear.5 mph62%29.89 "Hg10 mi
Weather by CustomWeather, © 2014

See weather overviewHow to use our weather pages